Location: Del Amo
(33.8464°N, 118.2104°W)
Time: 18:44:48
(UTC+00:00)

S-56A Canister/Altair - Pass Details

Date: 22 September 2024
Orbit: 636 x 2487 km, 38.9° (Epoch: 14 October)

Event Time Altitude Azimuth Distance (km) Brightness Sun altitude
Rises 04:01:25 0° 290° (WNW) 3,311 12.1 -27.6°
Reaches altitude 10° 04:03:33 10° 292° (WNW) 2,527 11.1 -28.0°
Maximum altitude 04:09:33 76° 18° (NNE) 1,162 8.2 -29.1°
Enters shadow 04:10:32 66° 73° (ENE) 1,267 8.3 -29.3°
Drops below altitude 10° 04:18:44 10° 104° (ESE) 3,775 - -30.9°
Sets 04:22:34 0° 106° (ESE) 5,064 - -31.6°
